Location: Marstown
(39.5056°N, 77.0820°W)
Time: 12:07:32
(UTC-04:00)

Tiangong 2 - Visible Passes

Search period start: 22 March 2019 00:00
Search period end: 01 April 2019 00:00
Orbit: 379 x 390 km, 42.8° (Epoch: 22 March)

Date Brightness Start Highest point End Pass type
(mag) Time Alt. Az. Time Alt. Az. Time Alt. Az.
22 Mar 1.9 05:19:40 48° ESE 05:19:40 48° ESE 05:22:03 10° ESE visible
23 Mar 1.9 05:55:33 30° SW 05:56:00 31° SSW 05:58:52 10° SE visible
24 Mar 4.0 04:59:20 13° SE 04:59:20 13° SE 04:59:43 10° SE visible
25 Mar 3.7 05:35:33 11° S 05:35:33 11° S 05:35:50 10° S visible
28 Mar 3.4 20:43:36 10° S 20:44:06 12° S 20:44:06 12° S visible
29 Mar 3.2 21:19:23 10° SW 21:20:30 19° SW 21:20:30 19° SW visible
30 Mar 2.2 20:20:17 10° SSW 20:22:59 26° SSE 20:24:26 19° ESE visible
30 Mar 4.3 21:56:26 10° W 21:56:41 12° W 21:56:41 12° W visible
31 Mar 0.9 20:56:53 10° WSW 21:00:00 80° SSE 21:00:25 62° E visible
